User: anonymous   Login
Location: Demmingen
(48.6757°N, 10.4375°E)
Time: 17:05:35
(UTC+00:00)
Language:

SJ 16-02 - Orbit

View from above orbital plane
View from above orbital plane
View from above satellite
View from above satellite

Ground track
Ground track

The orbit data is extracted from the following two-line orbital elements,

1 41634U 16043A   24200.22065199  .00002613  00000-0  27754-3 0  9994
2 41634  75.0012 158.6442 0009125 292.6303  67.3919 14.89419701436920
Epoch (UTC): 18 July 2024 05:17:44
Eccentricity: 0.0009125
inclination: 75.0012°
perigee height: 593 km
apogee height: 606 km
right ascension of ascending node: 158.6442°
argument of perigee: 292.6303°
revolutions per day: 14.89419701
mean anomaly at epoch: 67.3919°
orbit number at epoch: 43692

The dashed part of the orbit path shows where the satellite is in the earth's shadow,  

DLR